RH
65 79 85 85 87 85 83 89 86 74 51 45 38 35 32 25 32 17 29 38 39 40 19 20 31 31 31 38 42 58 79 85 74 70 59 45 49 41 45 65 59 64 78 74 74
33 64 77 84 85 81 82 83 60 52 59 46 36 33 36 35 33 22 25 33 38 35 14 23 38 36 46 42 47 59 83 67 53 56 60 53 54 50 58 61 64 56 74 78 71
16 42 58 77 82 77 74 37 32 37 40 39 32 28 36 34 33 20 26 37 35 32 15 22 35 40 49 50 48 54 75 56 50 50 52 59 61 51 61 70 61 52 66 79 75
11 20 23 61 72 47 46 25 28 29 31 30 25 21 37 36 11 15 29 23 25 23 18 27 40 51 57 63 52 68 59 55 53 49 52 57 52 57 63 59 45 48 59 80 80
10 14 15 17 29 21 25 23 24 25 27 25 24 32 34 20 18 15 15 16 22 23 21 31 46 56 65 66 67 76 64 55 53 56 55 53 60 61 60 48 50 46 57 82 81
10 14 13 12 15 19 23 23 22 21 24 25 24 33 20 17 14 16 16 18 24 23 21 25 41 48 63 69 74 61 65 66 61 54 58 72 77 65 62 52 51 46 53 81 83
10 10 13 12 12 23 21 18 19 20 21 21 23 35 18 15 15 15 17 22 22 24 21 24 40 50 56 73 62 70 83 63 53 52 56 69 68 77 58 57 59 50 48 80 82
10 10 13 11 14 23 20 19 20 20 20 20 25 32 24 14 14 15 21 17 20 23 22 28 40 50 60 62 59 66 66 81 55 51 58 63 76 73 83 76 76 58 53 77 83
12 10 12 12 19 22 26 16 18 19 17 22 20 25 14 13 15 16 24 26 25 27 29 35 41 59 53 70 77 82 92 80 74 51 56 70 87 95 84 86 92 78 63 68 77
12 11 14 12 22 20 22 17 16 16 19 21 15 13 13 20 16 20 26 23 29 26 37 48 46 58 62 80 94 84 89 82 86 61 56 74 98 97 92 96 94 91 87 88 89
13 11 15 13 23 19 31 22 28 23 16 17 18 14 18 17 15 24 32 28 24 32 45 51 55 61 54 60 63 67 76 90 73 58 70 96 91 100 96 89 96 95 91 87 85
12 11 15 19 25 20 23 52 63 35 24 17 15 19 17 19 25 25 33 40 36 44 45 46 48 41 45 53 64 71 76 82 69 56 66 89 95 96 98 99 100 100 93 92 81
13 12 14 21 27 27 41 63 64 58 38 20 18 19 20 19 27 31 38 46 48 52 57 49 38 42 49 60 68 69 75 82 80 65 69 95 96 91 94 92 80 82 84 79 81
12 16 14 24 27 43 46 56 56 54 64 22 20 18 20 21 22 26 35 46 54 62 65 51 41 52 58 61 64 90 57 66 76 88 96 99 96 86 83 87 71 73 90 89 82
12 20 18 25 26 31 43 58 55 56 39 22 24 20 22 26 28 29 34 52 68 68 54 47 56 59 61 59 59 75 62 80 81 88 96 95 91 82 62 76 78 78 81 90 82
15 18 18 23 20 38 53 55 51 67 35 26 27 37 32 36 41 46 52 50 54 57 56 59 51 49 49 48 58 60 77 61 78 94 93 92 88 91 94 96 84 81 82 87 84
22 22 14 18 26 40 49 58 68 54 23 26 33 41 39 44 48 56 72 80 91 78 98 69 49 47 44 67 56 68 84 89 82 93 97 91 81 96 90 95 96 96 92 92 90
28 30 23 27 36 48 52 70 31 35 36 35 42 35 43 47 47 59 62 86 77 89 95 99 70 57 45 59 71 82 85 97 99 97 94 74 96 95 62 65 86 96 90 82 89
38 36 28 34 40 49 66 66 47 38 34 40 34 32 35 45 56 59 73 87 73 92 100 97 76 54 47 59 65 76 89 80 97 91 95 93 78 96 57 68 73 83 88 91 92
43 39 32 35 54 46 80 53 45 36 40 40 25 44 35 52 62 69 78 64 80 77 78 96 94 53 57 59 56 64 64 88 92 93 98 92 93 90 87 90 82 89 93 92 93
44 50 40 41 47 69 70 61 43 36 38 43 48 49 47 63 60 69 73 56 68 78 77 90 94 72 67 90 83 74 90 86 90 96 98 98 98 96 95 94 94 93 94 95 94
48 74 43 50 70 96 81 46 36 39 37 43 43 45 46 48 74 78 70 67 70 74 91 87 94 100 80 68 62 66 77 92 96 91 95 96 92 95 95 95 96 93 94 93 92
63 63 44 47 68 85 49 49 41 41 40 41 46 42 45 50 45 53 50 61 69 77 90 87 92 90 70 67 60 89 70 80 88 96 96 97 94 77 72 85 92 95 93 93 94
79 70 76 89 86 62 54 46 53 42 42 41 42 45 51 55 58 54 56 56 67 70 64 75 97 79 88 77 88 96 88 84 90 95 96 96 90 75 77 88 85 91 92 94 95
78 76 59 76 75 68 61 52 51 52 43 40 43 40 54 54 77 76 62 62 64 66 72 82 92 99 89 82 84 85 95 93 99 92 96 90 99 90 85 94 94 96 94 93 92
84 79 81 82 58 64 71 64 43 46 48 47 56 47 54 64 50 61 76 74 81 69 86 87 89 91 95 87 83 87 87 89 93 86 81 91 86 67 77 73 91 95 94 94 93
75 56 62 71 77 65 66 64 50 58 43 41 46 55 56 51 53 49 55 62 61 88 97 94 95 98 94 80 93 93 98 100 94 97 96 98 84 80 84 79 90 94 94 95 95
Wind_Speed
13 14 14 14 14 14 14 11 8 8 7 7 7 8 8 3 2 18 8 16 17 18 25 21 12 13 10 1 3 3 1 6 8 10 11 10 11 16 9 7 7 5 3 5 17
14 15 14 14 13 14 13 10 7 6 6 7 7 8 10 6 2 6 16 21 18 19 29 13 6 10 3 1 2 3 3 6 6 8 11 13 12 15 6 10 7 9 6 6 16
14 14 15 14 13 13 11 7 5 5 5 5 6 9 11 2 2 4 24 22 20 23 27 13 5 2 2 3 1 1 4 5 16 14 14 13 12 7 7 11 11 9 3 7 11
13 14 15 15 13 13 10 5 5 5 6 5 6 9 5 2 3 11 22 31 28 21 10 5 3 2 3 3 2 3 9 11 12 13 11 13 10 11 7 15 5 10 2 5 7
13 14 15 15 13 13 8 4 4 6 7 6 7 7 2 6 4 21 32 37 23 16 5 2 3 1 2 4 4 4 6 8 13 19 15 13 16 10 12 15 7 12 8 8 4
13 14 15 16 13 12 8 4 2 2 5 7 9 4 4 4 16 22 38 35 16 7 3 1 2 3 3 4 1 5 10 16 10 12 8 6 5 5 9 7 12 11 7 9 5
12 14 15 16 11 13 7 4 5 3 5 6 8 4 4 3 17 24 37 29 12 5 2 3 3 2 3 7 3 7 7 10 3 6 5 3 4 4 12 6 11 10 5 10 9
13 15 15 16 11 13 5 1 5 8 3 3 5 2 1 4 17 22 37 22 14 9 5 4 2 1 1 7 7 6 4 7 10 9 5 4 5 16 22 11 8 9 7 11 5
13 14 14 14 11 14 6 3 5 8 2 4 3 3 4 12 25 26 30 13 15 14 2 3 4 3 6 4 4 5 7 7 8 8 10 6 7 21 22 22 22 13 5 5 5
12 14 13 12 11 15 5 4 2 4 3 2 6 3 6 8 22 31 38 17 5 5 4 7 5 3 4 5 5 9 6 5 6 7 11 7 11 13 21 20 18 20 18 16 18
11 13 11 11 9 15 2 5 3 5 12 4 2 3 7 19 5 30 36 11 8 9 5 5 8 8 9 5 6 6 4 6 6 4 6 8 15 14 15 22 22 20 19 18 17
10 12 10 11 4 12 3 6 1 3 5 2 1 2 9 7 5 22 30 8 8 6 8 6 4 7 8 11 7 7 5 5 10 7 6 7 15 15 13 16 14 13 16 18 19
10 10 10 10 1 6 11 6 4 2 5 2 3 3 4 5 4 12 13 6 6 6 5 1 4 10 12 11 15 10 4 3 8 14 2 3 3 20 15 15 19 21 19 19 18
9 8 9 3 1 3 3 3 2 1 5 8 7 6 9 3 5 10 18 1 7 6 7 3 6 9 17 11 11 5 1 15 13 4 3 2 2 19 17 16 24 26 23 22 23
8 6 4 5 4 2 1 3 2 1 4 6 4 4 7 8 5 12 16 6 4 6 5 4 7 8 15 12 11 8 20 8 2 2 3 6 4 8 13 21 26 23 23 21 20
4 4 2 1 5 4 3 3 1 5 3 3 4 6 5 6 7 7 9 8 2 4 4 4 6 3 5 15 7 15 5 2 2 2 3 7 1 7 15 17 21 20 23 23 22
1 2 4 3 3 5 6 2 4 5 2 5 4 6 3 6 7 8 6 11 8 8 9 9 5 7 12 8 5 18 6 4 5 5 3 4 8 2 14 16 15 17 22 21 19
3 2 5 5 4 8 4 4 5 1 1 1 3 2 4 7 4 8 4 7 6 5 3 7 8 9 10 3 8 6 4 3 1 3 4 6 3 4 15 12 16 15 19 21 24
4 2 1 4 3 4 4 5 5 3 2 2 2 5 3 3 1 4 6 5 3 3 4 7 5 6 3 4 6 8 6 3 2 2 1 3 3 3 20 19 21 21 24 25 23
4 3 1 1 1 3 5 4 2 1 3 1 3 2 4 6 5 5 4 3 5 5 2 1 6 2 6 7 7 6 5 4 3 4 5 3 3 5 22 24 24 25 24 23 22
4 2 2 1 2 5 4 3 3 2 2 2 3 2 1 1 2 1 4 3 4 6 2 2 3 7 3 6 6 6 5 5 2 1 1 3 2 4 15 18 19 19 20 20 21
4 1 1 4 4 1 3 5 4 3 2 2 3 2 3 2 2 0 2 4 6 2 5 2 2 5 5 4 4 4 5 4 2 6 2 2 2 3 13 14 14 15 18 19 19
1 1 2 3 3 2 2 3 3 3 2 3 2 1 0 2 3 2 1 2 5 5 5 2 2 4 9 6 5 5 6 5 4 1 2 1 3 3 15 16 16 16 19 18 20
2 1 3 3 1 7 6 4 3 3 2 3 4 4 4 1 2 2 1 1 4 4 9 2 2 5 5 6 2 4 7 8 1 3 4 0 10 9 19 20 20 19 18 17 16
2 2 2 1 2 5 4 5 6 4 1 2 2 3 5 2 3 1 1 4 3 7 4 4 1 1 5 7 2 2 3 6 4 1 1 6 6 7 17 17 14 13 17 18 20
4 3 3 2 3 6 3 4 6 4 5 4 3 5 5 4 6 6 4 2 1 4 4 4 1 2 3 2 2 3 5 5 2 3 2 7 8 12 16 14 12 11 16 19 19
4 4 3 1 2 3 4 6 6 8 2 2 6 5 4 2 4 3 3 3 2 4 2 3 2 3 4 4 3 3 3 2 3 1 1 3 7 14 19 19 15 10 17 16 18
Wind_Direction
4 1 2 4 2 2 1 3 14 32 33 32 33 26 10 355 109 27 2 340 337 341 343 336 339 338 318 289 163 99 106 266 265 264 270 278 287 283 265 265 273 256 241 342 333
2 360 360 0 0 0 3 6 20 29 25 18 22 18 358 354 256 5 351 339 331 335 342 329 313 332 332 311 335 136 182 257 242 250 267 276 268 279 268 270 275 284 259 3 349
1 357 359 357 357 357 2 27 30 21 11 12 13 2 352 338 63 304 339 338 324 324 326 307 289 312 331 1 286 210 230 251 276 260 266 264 270 258 250 263 249 274 325 47 355
356 356 0 356 354 359 360 30 38 30 7 348 346 350 11 56 344 335 334 331 322 321 327 329 348 45 305 314 287 291 258 264 284 279 272 265 272 270 229 248 246 260 297 69 350
350 354 0 357 352 359 359 14 37 37 28 30 16 1 44 43 302 339 344 339 336 341 332 347 23 5 312 281 313 212 270 294 285 287 280 272 262 251 248 253 243 264 235 117 287
347 353 357 355 354 355 355 358 336 26 42 40 17 33 84 65 342 339 344 343 354 354 334 246 222 240 295 268 223 265 301 293 293 296 278 272 290 152 262 263 243 249 229 137 213
343 349 355 353 356 354 359 14 14 310 287 327 0 33 72 204 351 343 344 338 0 328 252 246 214 70 315 301 299 288 309 312 321 316 299 240 312 247 277 274 257 250 227 160 194
339 347 353 354 357 356 351 34 23 3 341 307 340 58 230 322 342 350 349 352 358 1 233 321 177 115 37 310 339 344 21 349 316 337 321 12 311 13 351 355 297 230 175 150 177
335 344 352 355 358 353 335 252 2 350 88 28 17 39 346 342 344 352 348 324 325 11 54 63 57 58 358 360 355 12 309 322 311 328 337 20 348 17 8 25 10 24 37 160 189
332 341 350 354 357 353 341 197 59 70 57 15 20 27 11 317 331 348 356 5 353 352 23 39 41 57 10 27 336 316 319 300 287 313 337 32 40 29 18 24 12 9 11 14 7
326 338 342 352 360 360 78 107 30 358 33 89 160 126 287 329 2 358 351 337 16 60 20 355 38 356 325 311 279 264 262 289 278 284 348 69 44 11 20 19 12 10 3 3 4
323 335 336 345 357 4 72 78 90 155 97 354 18 270 306 337 347 360 -0 41 37 20 347 9 16 317 309 332 314 313 302 307 296 338 330 90 58 33 20 18 1 5 5 2 355
324 334 337 344 31 32 76 98 103 111 95 21 32 348 332 347 42 348 8 351 47 30 10 42 291 335 343 334 349 338 239 288 295 317 244 226 73 11 11 9 6 12 4 1 359
328 334 340 23 110 55 61 124 131 73 78 335 354 1 356 328 48 14 8 13 27 9 339 287 316 353 342 349 350 306 334 314 300 320 298 349 79 21 355 1 12 7 4 354 352
330 337 356 46 121 75 90 137 167 344 35 357 345 347 357 60 298 347 357 15 54 326 16 300 322 340 347 331 324 267 323 300 237 198 323 23 69 358 0 5 359 357 358 353 342
331 356 341 52 68 99 129 142 83 44 264 27 6 3 22 20 3 318 8 24 96 5 356 277 283 297 313 301 284 325 340 19 34 62 46 326 86 11 7 349 344 348 352 350 349
267 59 36 60 107 123 136 69 32 107 354 359 346 5 57 354 354 9 3 32 39 14 12 330 338 322 356 329 317 356 22 4 14 21 6 14 55 44 358 350 345 344 348 349 348
184 198 47 63 109 131 124 51 76 240 300 27 36 1 54 10 12 349 15 21 47 66 35 15 341 358 343 14 300 328 62 102 336 351 312 24 20 148 18 0 353 350 350 351 356
171 164 33 23 112 152 83 52 194 192 112 35 63 56 353 22 93 38 17 3 27 21 80 0 284 314 308 325 2 331 34 272 284 244 280 355 337 142 360 355 355 356 359 355 352
154 164 99 347 132 135 75 154 141 78 112 64 86 21 360 344 39 43 353 316 337 46 93 327 297 315 312 351 14 63 309 20 10 26 347 357 43 314 346 356 351 352 355 346 345
138 50 154 226 144 50 116 162 134 104 119 88 143 116 102 50 90 53 272 305 355 332 67 109 119 298 3 14 2 355 16 358 293 31 145 318 342 9 357 351 345 343 343 338 343
105 319 47 178 47 38 100 135 135 137 66 90 88 110 153 152 94 333 301 198 9 30 14 307 110 290 242 306 325 92 360 15 77 326 14 265 297 38 13 343 330 335 341 342 343
167 259 7 189 140 83 127 77 68 132 149 138 126 132 92 128 71 239 314 104 19 28 13 302 358 354 347 353 23 29 6 336 268 282 38 52 315 11 358 345 347 340 346 346 340
92 312 341 52 28 127 140 146 106 6 104 119 130 108 76 109 27 184 326 43 347 3 16 92 93 150 198 223 163 2 343 342 44 53 308 272 307 338 348 342 342 344 342 341 341
66 281 317 216 318 105 96 140 133 163 65 183 90 184 151 130 2 192 18 346 31 5 27 90 118 125 271 271 246 137 317 353 34 110 189 312 309 329 340 330 332 329 335 343 345
137 141 2 62 73 94 2 205 150 156 151 216 159 160 161 148 184 210 134 157 254 345 44 358 265 45 293 172 296 194 2 6 349 350 315 308 297 350 323 323 334 336 346 342 339
133 124 125 281 100 100 194 175 182 131 331 205 156 119 166 212 154 143 126 137 159 129 339 60 19 45 273 356 10 18 293 307 283 208 263 343 295 322 326 330 334 339 348 336 333